Погода в Анишине

Россия / Тульская область     54°18′59″N   37°57′14″E
темп.,
°C
ветер,
м/с
пор.,
м/с
влажн.,
%
обл.,
%
осадки,
мм/ч
давл.,
гПа
погр.,
м
12 апреля, пн
пн1200:00+7в3569100 0.0 103278
03:00+5всв41073100 0.0 1032192
06:00+4всв51467100 0.0 1032314
09:00+7в71455100 0.0 1031511
12:00+11в71070100 0.0 1029597
15:00+14в71067100 0.0 1028728
18:00+14вюв6117288 0.0 1027621
21:00+11в5148669 0.0 1027316
13 апреля, вт
вт1300:00+10вюв4138769 0.0 1026254
03:00+9юв41381100 0.0 1026213
06:00+7юв4128098 0.0 1026176
09:00+12ююв51060100 0.0 1026322
12:00+17ююв6104255 0.0 1025871
15:00+19ююв693621 0.0 10241476
18:00+18юв4941100 0.0 1023257
21:00+12юв413560 0.0 1024222
14 апреля, ср
ср1400:00+11юв515605 0.0 1023305
03:00+9юв411706 0.0 1023193
06:00+7юв4107464 0.0 1022166
09:00+12ююв5105892 0.0 1021335
12:00+17ююв68408 0.0 1020878
15:00+18ююв683248 0.0 10191905
18:00+17юв473985 0.0 1018182
21:00+12юв465598 0.0 101886
15 апреля, чт
чт1500:00+11юв3558100 0.0 101867
03:00+9ююв2264100 0.0 101818
06:00+8юв337099 0.0 101843
09:00+13юв4655100 0.0 1017285
12:00+16юв3444100 0.0 1017764
15:00+18вюв4538100 0.0 10161576
18:00+16всв3450100 0.0 101589
21:00+13ссв4663100 0.1 101598
16 апреля, пт
пт1600:00+11ссв3579100 0.3 1015100
03:00+10св488392 0.3 1015164
06:00+10всв5108598 0.1 1015252
09:00+12в61074100 0.2 1016440
12:00+16в685698 0.0 10161038
15:00+18в7950100 0.0 10161742
18:00+15в5964100 2.4 1017452
21:00+11ссв4792100 18.2 1020263